Tracking 29892 objects as of 21-Nov-2024
HD Live streaming from Space Station
objects crossing your sky now

PSLV DEB

Track PSLV DEB now!
10-day predictions


NORAD ID: 41792
Int'l Code: 2016-059K
Perigee: 640.0 km
Apogee: 671.9 km
Inclination: 97.8 °
Period: 97.7 minutes
Semi major axis: 7026 km
RCS: Unknown
Launch date: September 26, 2016
Source: India (IND)
Launch site: SRIHARIKOTA (SRI)

Note: This is SATELLITE DEBRIS
Your satellite tracking list
Your tracking list is empty




NASA's NSSDC Master Catalog

Two Line Element Set (TLE):
1 41792U 16059K   24326.12566430  .00006294  00000-0  96383-3 0  9991
2 41792  97.8302 355.1335 0022684 203.7822 156.2341 14.73854081436270
Source of the keplerian elements: AFSPC